{"data":{"norad_id":59415,"intl_designator":"2024-064T","name":"STARLINK-31398","alt_names":[],"object_type":"PAYLOAD","status":"ACTIVE","operator":null,"country":"US","launch_date":"2024-04-05","launch_site_code":"AFETR","launch_vehicle":null,"mission":null,"orbit_class":"UNKNOWN","rcs_meters":null,"size_class":null,"mass_kg":null,"dimensions":null,"purposes":["comms"],"wikipedia_slug":null,"has_3d_model":false,"image_url":null,"decayed_at":null,"tle_current":{"epoch":"2026-09-21T15:10:39.870624Z","epoch_age_seconds":67247,"freshness":"FRESH","line1":"1 59415U 24064T   26264.63240591  .00000489  00000+0  27297-4 0  9991","line2":"2 59415  43.0022  29.5039 0001233 268.9028  91.1682 15.27579056139196","mean_motion":15.27579056,"eccentricity":0.0001233,"inclination_deg":43.0022,"raan_deg":29.5039,"arg_perigee_deg":268.9028,"mean_anomaly_deg":91.1682,"bstar":2.7297e-5,"rev_number":13919,"period_min":94.266806967796,"perigee_km":482.20593812254,"apogee_km":483.89790731088,"semimajor_km":6861.1889227167,"source":"CELESTRAK","updated_at":"2026-09-22T09:00:48.917428Z"}}}